OBJECT A, 66175

Orbit data source: Space-Track

You're viewing an Uncataloged Satellite

Recently launched and/or uncataloged satellites may have evolving metadata. Metadata may include but not limited to: Owner, Maufacturer, Bus, Motor, and Mission.

OBJECT A, 66175 is a satellite owned by Yaogan Zongti (CN) in SSO that was launched on Sun, 26 Oct 2025 UTC via a CHANG ZHENG 3B launch vehicle from the Xichang Space Center, China (XSC). Unknown objects in Earth's orbit typically refer to objects detected orbiting the Earth but have not yet been identified or cataloged. These objects could be anything from previously untracked satellites, spent rocket stages, debris from satellite collisions, or even natural meteoroids temporarily captured by Earth's gravity.

Loading next visibility...
Identifier
66175, 2025-242A
Orbit
SSO
Country
Flag of CNCN / PRC
Related business
Manufacturer
CAST
Mission
Operational Defense Imaging
Bus & Motor
GF-14, Unknown motor
Mass
~6,500 kg wet, ~5,500 kg dry
Launch date (UTC)
2025-10-26 (4 months ago)
Launch vehicle
CHANG ZHENG 3B
Launch site
Xichang Space Center, China (XSC)
Object type
Unknown
Shape & HBR
Box + 2 Pan, 4.3 m
Radar Cross Section
26.513 m²

Expand to show TLE details & history
Last TLE update: 7 hours ago

TLE from 7 hours ago
0 OBJECT A
1 66175U 25242A   26061.86447763  .00008853  00000-0  35165-3 0  9997
2 66175  97.4215 138.3358 0001667   7.9318 352.1946 15.25555410 19489
Epoch: 2026-03-02T20:44Z
TLE epoch observation values (Epoch: 2026-03-02T20:44:50.867Z)
Latitude
-0.00002°
Longitude
26.47209°
Altitude
491.081 km
Speed
7.62 km/s
True Right ascension
09h 13m 20s
True Declination
0° 00' 00"
Sunlit
Object was in full shadow at epoch
Visualization orbit readout
Latitude
Unknown
Longitude
Unknown
Altitude
Unknown
Speed
Unknown
Apparent Right ascension
Unknown
Apparent Declination
Unknown
Sunlit
N/A
Visualization observer readout
Local Sidereal Time
06:58:32
Azimuth
Unknown
Elevation
Unknown
Doppler factor
Unknown
Orbital elements
Apogee altitude
487.222 km
Perigee altitude
484.933 km
Semi-major axis
6,864.214 km
Eccentricity
0.00017
Inclination
97.4215°
RAAN
138.3358°
Arg. of periapsis
7.9318°
True anomaly
352.19201°
Mean anomaly
352.1946°
Eccentric anomaly
352.1933°
Mean motion
3.81643 °/min
Orbital period
94.33 mins
BSTAR
0.00035165
Loading maneuver chart data...
Computing Atmospheric mass density...
Loading historical data...
Loading historical data...
Loading historical data...
Loading historical data...
Loading historical data...
Loading historical data...
Loading historical data...
Other satellites on launch #242 in the year 2025 (2025-10-26 UTC)

Documentation

Showing up to 5 results
|